timestamp,wind_dir_avg,wind_spd_avg,wind_spd_max_dir,wind_spd_gust,battery_voltage,lat,long
2022-03-13 00:04:01+00:00,171.0,18.6,167.0,22.9,12.41,47.59359,-54.27349
2022-03-13 00:14:01+00:00,173.0,16.58,178.0,19.68,12.33,47.59359,-54.27349
2022-03-13 00:24:01+00:00,175.0,19.06,165.0,22.63,12.33,47.59359,-54.27349
2022-03-13 00:34:01+00:00,182.0,19.26,183.0,24.22,12.33,47.59359,-54.27349
2022-03-13 00:44:01+00:00,186.0,20.47,178.0,23.55,12.33,47.59359,-54.27349
2022-03-13 00:54:01+00:00,189.0,21.54,188.0,27.72,12.33,47.59359,-54.27349
2022-03-13 01:04:01+00:00,184.0,20.57,191.0,25.08,12.33,47.59359,-54.27349
2022-03-13 01:14:01+00:00,187.0,20.17,191.0,25.68,12.41,47.59359,-54.27349
2022-03-13 01:24:01+00:00,183.0,21.44,178.0,25.04,12.41,47.59359,-54.27349
2022-03-13 01:34:01+00:00,180.0,23.74,180.0,29.36,12.41,47.59359,-54.27349
2022-03-13 01:44:01+00:00,183.0,21.98,176.0,27.53,12.41,47.59359,-54.27349
2022-03-13 01:54:01+00:00,178.0,22.39,183.0,27.99,12.41,47.59359,-54.27349
2022-03-13 02:04:01+00:00,185.0,22.07,168.0,26.34,12.41,47.59359,-54.27349
2022-03-13 02:14:01+00:00,179.0,24.6,182.0,30.18,12.33,47.59359,-54.27349
2022-03-13 02:24:01+00:00,183.0,22.16,184.0,28.93,12.33,47.59359,-54.27349
2022-03-13 02:34:01+00:00,184.0,23.4,190.0,31.06,12.33,47.59359,-54.27349
2022-03-13 02:44:01+00:00,181.0,22.36,176.0,26.97,12.33,47.59359,-54.27349
2022-03-13 02:54:01+00:00,186.0,19.05,173.0,22.42,12.33,47.59359,-54.27349
2022-03-13 03:04:01+00:00,182.0,21.81,184.0,28.83,12.33,47.59359,-54.27349
2022-03-13 03:14:01+00:00,188.0,25.35,187.0,38.41,12.33,47.59359,-54.27349
2022-03-13 03:24:01+00:00,188.0,26.59,187.0,31.44,12.33,47.59359,-54.27349
2022-03-13 03:34:01+00:00,190.0,24.54,186.0,29.75,12.33,47.59359,-54.27349
2022-03-13 03:44:01+00:00,198.0,23.74,196.0,29.4,12.33,47.59359,-54.27349
2022-03-13 03:54:01+00:00,192.0,24.57,198.0,30.15,12.33,47.59359,-54.27349
2022-03-13 04:04:01+00:00,197.0,20.71,201.0,25.89,12.33,47.59359,-54.27349
2022-03-13 04:14:01+00:00,195.0,22.73,199.0,27.95,12.33,47.59359,-54.27349
2022-03-13 04:24:01+00:00,204.0,24.06,199.0,29.83,12.33,47.59359,-54.27349
2022-03-13 04:34:01+00:00,204.0,23.29,198.0,30.4,12.33,47.59359,-54.27349
2022-03-13 04:44:01+00:00,208.0,23.24,199.0,27.84,12.33,47.59359,-54.27349
2022-03-13 04:54:01+00:00,210.0,22.43,207.0,26.03,12.33,47.59359,-54.27349
2022-03-13 05:04:01+00:00,212.0,21.7,213.0,24.83,12.33,47.59359,-54.27349
2022-03-13 05:14:01+00:00,214.0,19.81,209.0,25.02,12.25,47.59359,-54.27349
2022-03-13 05:24:01+00:00,212.0,21.57,208.0,25.18,12.25,47.59359,-54.27349
2022-03-13 05:34:01+00:00,210.0,22.04,208.0,27.21,12.25,47.59359,-54.27349
2022-03-13 05:44:01+00:00,212.0,20.7,212.0,25.0,12.25,47.59359,-54.27349
2022-03-13 05:54:01+00:00,219.0,18.99,212.0,23.02,12.25,47.59359,-54.27349
2022-03-13 06:04:01+00:00,217.0,19.34,214.0,22.6,12.25,47.59359,-54.27349
2022-03-13 06:14:01+00:00,217.0,18.53,217.0,21.29,12.25,47.59359,-54.27349
2022-03-13 06:24:01+00:00,216.0,18.79,212.0,22.69,12.25,47.59359,-54.27349
2022-03-13 06:34:01+00:00,213.0,19.03,213.0,23.76,12.25,47.59359,-54.27349
2022-03-13 06:44:01+00:00,222.0,17.94,219.0,20.7,12.25,47.59359,-54.27349
2022-03-13 06:54:01+00:00,213.0,21.2,206.0,24.66,12.25,47.59359,-54.27349
2022-03-13 07:04:01+00:00,213.0,21.02,209.0,23.97,12.25,47.59359,-54.27349
2022-03-13 07:14:01+00:00,215.0,20.69,211.0,25.5,12.25,47.59359,-54.27349
2022-03-13 07:24:01+00:00,213.0,21.2,210.0,24.68,12.25,47.59359,-54.27349
2022-03-13 07:34:01+00:00,210.0,23.41,210.0,28.79,12.25,47.59359,-54.27349
2022-03-13 07:44:01+00:00,207.0,20.29,205.0,23.92,12.25,47.59359,-54.27349
2022-03-13 07:54:01+00:00,211.0,20.19,210.0,25.41,12.25,47.59359,-54.27349
2022-03-13 08:04:01+00:00,208.0,22.27,210.0,25.5,12.25,47.59359,-54.27349
2022-03-13 08:14:00+00:00,206.0,22.2,208.0,25.58,12.17,47.59359,-54.27349
2022-03-13 08:24:00+00:00,209.0,20.1,210.0,24.45,12.17,47.59359,-54.27349
2022-03-13 08:34:00+00:00,209.0,21.57,205.0,27.15,12.17,47.59359,-54.27349
2022-03-13 08:44:00+00:00,205.0,21.38,209.0,25.03,12.17,47.59359,-54.27349
2022-03-13 08:54:00+00:00,207.0,22.29,206.0,27.18,12.17,47.59359,-54.27349
2022-03-13 09:04:00+00:00,207.0,23.68,204.0,28.3,12.17,47.59359,-54.27349
2022-03-13 09:14:01+00:00,206.0,23.32,206.0,27.17,12.25,47.59359,-54.27349
2022-03-13 09:24:01+00:00,206.0,23.32,203.0,28.16,12.25,47.59359,-54.27349
2022-03-13 09:34:01+00:00,209.0,23.03,205.0,28.16,12.25,47.59359,-54.27349
2022-03-13 09:44:01+00:00,208.0,23.09,207.0,27.42,12.25,47.59359,-54.27349
2022-03-13 09:54:01+00:00,209.0,23.7,208.0,26.46,12.25,47.59359,-54.27349
2022-03-13 10:04:01+00:00,208.0,23.55,208.0,28.52,12.25,47.59359,-54.27349
2022-03-13 10:14:00+00:00,210.0,22.4,206.0,26.8,12.17,47.59359,-54.27349
2022-03-13 10:24:00+00:00,209.0,23.76,209.0,29.12,12.17,47.59359,-54.27349
2022-03-13 10:34:00+00:00,209.0,23.23,206.0,27.46,12.17,47.59359,-54.27349
2022-03-13 10:44:00+00:00,209.0,25.96,205.0,30.09,12.17,47.59359,-54.27349
2022-03-13 10:54:00+00:00,212.0,24.92,220.0,28.77,12.17,47.59359,-54.27349
2022-03-13 11:04:00+00:00,209.0,23.64,204.0,28.48,12.17,47.59359,-54.27349
2022-03-13 11:14:00+00:00,213.0,21.61,209.0,26.13,12.17,47.59359,-54.27349
2022-03-13 11:24:00+00:00,213.0,23.25,218.0,26.84,12.17,47.59359,-54.27349
2022-03-13 11:34:00+00:00,211.0,22.65,208.0,25.73,12.17,47.59359,-54.27349
2022-03-13 11:44:00+00:00,212.0,21.74,210.0,24.89,12.17,47.59359,-54.27349
2022-03-13 11:54:00+00:00,215.0,20.12,212.0,23.36,12.17,47.59359,-54.27349
2022-03-13 12:04:00+00:00,215.0,20.11,215.0,22.81,12.17,47.59359,-54.27349
2022-03-13 12:14:00+00:00,219.0,19.53,215.0,22.48,12.25,47.59359,-54.27349
2022-03-13 12:24:00+00:00,215.0,21.08,217.0,32.93,12.25,47.59359,-54.27349
2022-03-13 12:34:00+00:00,217.0,20.53,207.0,27.46,12.25,47.59359,-54.27349
2022-03-13 12:44:00+00:00,219.0,19.09,221.0,23.8,12.25,47.59359,-54.27349
2022-03-13 12:54:00+00:00,225.0,23.24,225.0,30.25,12.25,47.59359,-54.27349
2022-03-13 13:04:00+00:00,223.0,20.36,233.0,26.4,12.25,47.59359,-54.27349
2022-03-13 13:14:00+00:00,227.0,20.18,228.0,27.85,12.49,47.59359,-54.27349
2022-03-13 13:24:00+00:00,226.0,19.08,219.0,27.15,12.49,47.59359,-54.27349
2022-03-13 13:34:00+00:00,234.0,22.36,241.0,26.89,12.49,47.59359,-54.27349
2022-03-13 13:44:00+00:00,230.0,17.51,233.0,22.86,12.49,47.59359,-54.27349
2022-03-13 13:54:00+00:00,226.0,16.97,223.0,21.16,12.49,47.59359,-54.27349
2022-03-13 14:04:00+00:00,236.0,21.93,239.0,28.8,12.49,47.59359,-54.27349
2022-03-13 14:14:00+00:00,231.0,19.14,227.0,22.26,12.81,47.59359,-54.27349
2022-03-13 14:24:00+00:00,234.0,20.63,236.0,31.22,12.81,47.59359,-54.27349
2022-03-13 14:34:00+00:00,234.0,19.98,244.0,23.74,12.81,47.59359,-54.27349
2022-03-13 14:44:00+00:00,236.0,20.73,247.0,28.07,12.81,47.59359,-54.27349
2022-03-13 14:54:00+00:00,234.0,20.08,225.0,23.34,12.81,47.59359,-54.27349
2022-03-13 15:04:00+00:00,233.0,20.83,234.0,25.13,12.81,47.59359,-54.27349
2022-03-13 15:14:00+00:00,232.0,21.64,237.0,29.64,13.92,47.59359,-54.27349
2022-03-13 15:24:00+00:00,235.0,19.3,226.0,22.53,13.92,47.59359,-54.27349
2022-03-13 15:34:00+00:00,233.0,20.2,224.0,23.05,13.92,47.59359,-54.27349
2022-03-13 15:44:00+00:00,242.0,19.06,238.0,21.1,13.92,47.59359,-54.27349
2022-03-13 15:54:00+00:00,248.0,16.01,246.0,19.64,13.92,47.59359,-54.27349
2022-03-13 16:04:00+00:00,247.0,18.33,249.0,19.99,13.92,47.59359,-54.27349
2022-03-13 16:14:01+00:00,243.0,11.09,259.0,18.8,13.21,47.59359,-54.27349
2022-03-13 16:24:01+00:00,250.0,15.37,252.0,18.91,13.21,47.59359,-54.27349
2022-03-13 16:34:01+00:00,238.0,12.79,249.0,17.92,13.21,47.59359,-54.27349
2022-03-13 16:44:01+00:00,237.0,11.82,245.0,14.96,13.21,47.59359,-54.27349
2022-03-13 16:54:01+00:00,237.0,12.03,235.0,14.2,13.21,47.59359,-54.27349
2022-03-13 17:04:01+00:00,239.0,7.55,248.0,11.89,13.21,47.59359,-54.27349
2022-03-13 17:14:01+00:00,249.0,14.14,253.0,17.07,13.6,47.59359,-54.27349
2022-03-13 17:24:01+00:00,257.0,17.18,261.0,18.56,13.6,47.59359,-54.27349
2022-03-13 17:34:01+00:00,253.0,17.99,255.0,19.0,13.6,47.59359,-54.27349
2022-03-13 17:44:01+00:00,240.0,14.7,249.0,18.53,13.6,47.59359,-54.27349
2022-03-13 17:54:01+00:00,242.0,18.14,237.0,20.16,13.6,47.59359,-54.27349
2022-03-13 18:04:01+00:00,251.0,18.94,255.0,21.76,13.6,47.59359,-54.27349
2022-03-13 18:14:00+00:00,255.0,18.41,252.0,21.51,13.76,47.59359,-54.27349
2022-03-13 18:24:00+00:00,256.0,17.18,254.0,18.79,13.76,47.59359,-54.27349
2022-03-13 18:34:00+00:00,258.0,19.2,262.0,22.14,13.76,47.59359,-54.27349
2022-03-13 18:44:00+00:00,261.0,19.1,265.0,24.87,13.76,47.59359,-54.27349
2022-03-13 18:54:00+00:00,259.0,19.28,253.0,21.59,13.76,47.59359,-54.27349
2022-03-13 19:04:00+00:00,258.0,21.07,261.0,29.37,13.76,47.59359,-54.27349
2022-03-13 19:14:00+00:00,253.0,20.86,260.0,23.06,13.68,47.59359,-54.27349
2022-03-13 19:24:00+00:00,255.0,21.92,258.0,28.19,13.68,47.59359,-54.27349
2022-03-13 19:34:00+00:00,255.0,21.07,250.0,23.22,13.68,47.59359,-54.27349
2022-03-13 19:44:00+00:00,256.0,20.32,261.0,22.57,13.68,47.59359,-54.27349
2022-03-13 19:54:00+00:00,253.0,21.23,246.0,23.1,13.68,47.59359,-54.27349
2022-03-13 20:04:00+00:00,259.0,18.28,259.0,22.1,13.68,47.59359,-54.27349
2022-03-13 21:14:00+00:00,256.0,22.09,252.0,26.18,13.29,47.59359,-54.27349
2022-03-13 21:24:00+00:00,261.0,20.18,270.0,25.31,13.29,47.59359,-54.27349
2022-03-13 21:34:00+00:00,265.0,20.16,257.0,26.52,13.29,47.59359,-54.27349
2022-03-13 21:44:00+00:00,255.0,20.0,242.0,23.71,13.29,47.59359,-54.27349
2022-03-13 21:54:00+00:00,271.0,19.17,275.0,29.54,13.29,47.59359,-54.27349
2022-03-13 22:04:00+00:00,258.0,19.48,259.0,21.25,13.29,47.59359,-54.27349
2022-03-13 23:14:01+00:00,273.0,14.4,272.0,20.54,12.41,47.59359,-54.27349
2022-03-13 23:24:01+00:00,263.0,14.56,269.0,20.39,12.41,47.59359,-54.27349
2022-03-13 23:34:01+00:00,262.0,18.75,261.0,21.92,12.41,47.59359,-54.27349
2022-03-13 23:44:01+00:00,262.0,17.31,258.0,20.91,12.41,47.59359,-54.27349
2022-03-13 23:54:01+00:00,261.0,12.82,271.0,19.2,12.41,47.59359,-54.27349
